993  
ASUS41 KALY 201910  
RWRALY  
 
NEW YORK STATE HOURLY WEATHER ROUNDUP  
NATIONAL WEATHER SERVICE ALBANY NY  
200 PM EST WED FEB 20 2019  
 
NOTE: "FAIR" INDICATES FEW OR NO CLOUDS BELOW 12,000 FEET WITH NO  
SIGNIFICANT WEATHER AND/OR NO S TO VISIBILITY
.  
 
NYZ032-033-038>043-046>054-057>066-NYZ062>081-082-084-202000-  
EAST  
 
 
CITY SKY/WX TMP DP RH WIND PRES REMARKS
 
ALBANY CLOUDY 26 11 52 S6 30.47F WCI 19  
GLENS FALLS CLOUDY 22 10 60 SE3 30.46F  
POUGHKEEPSIE FLURRIES 27 15 61 S5 30.48F WCI 22  
NEWBURGH LGT SNOW 27 21 80 CALM 30.47F FOG  
MONTGOMERY CLOUDY 25 20 81 SW5 30.45F WCI 19  
WHITE PLAINS LGT SNOW 25 20 81 E5 30.46F FOG WCI 19  
ISLIP LGT SNOW 27 24 89 SE3 30.50F VSB 1  
NEW YORK CITY LGT SNOW 27 22 81 E9 30.48F WCI 18  
CENTRAL PARK LGT SNOW 28 24 85 MISG 30.49F VSB 1  

 
 
NYZ005>009-017-018-044>046-055-056-202000-  
CENTRAL  
 
 
CITY SKY/WX TMP DP RH WIND PRES REMARKS
 
FULTON CLOUDY 28 10 46 E7 30.30F WCI 21  
SYRACUSE FLURRIES 28 14 55 E10 30.31F WCI 19  
ROME CLOUDY 26 14 60 E9 30.37F WCI 17  
ELMIRA LGT SNOW 29 23 78 SE5 30.26F WCI 24  
BINGHAMTON MIX PCPN 24 20 84 SE8 30.26F FOG WCI 15  
MONTICELLO SNOW 23 18 80 SE8 30.37F VSB 1/2 WCI 14  

 
 
NYZ026>034-041>043-087-202000-  
NORTH  
 
 
CITY SKY/WX TMP DP RH WIND PRES REMARKS
 
WATERTOWN CLOUDY 27 16 63 NE12 30.32F WCI 17  
FORT DRUM NOT AVBL  
OGDENSBURG FAIR 25 12 58 SE3 30.35F  
MASSENA FAIR 22 11 62 NE6 30.40F WCI 14  
SARANAC LAKE PTSUNNY 22 9 57 CALM 30.27F  
PLATTSBURGH FAIR 22 11 62 SE9 30.42F WCI 12  

 
 
NYZ001>004-010>016-019>021-085-202000-  
WEST  
 
 
CITY SKY/WX TMP DP RH WIND PRES REMARKS
 
NIAGARA FALLS CLOUDY 32 18 56 E13 30.11F WCI 22  
BUFFALO FLURRIES 35 24 64 SE12 30.12F WCI 27  
DUNKIRK CLOUDY 34 26 72 SE8 30.10F WCI 27  
JAMESTOWN CLOUDY 27 24 89 SE17G24 30.06F WCI 14  
WELLSVILLE MIX PCPN 24 22 91 S17G29 30.12F FOG WCI 11  
ROCHESTER CLOUDY 31 15 52 SE12 30.21F WCI 22  
PENN YAN CLOUDY 31 24 75 S7 30.23F WCI 24  

 
 
KEY  
WCI = WIND CHILL INDEX  
VSB = VISIBILITY  
HX = HEAT INDEX  

 
 
 
CLICK HERE TO GO TO PREVIOUS BULLETINS.

The Nexlab NY Page
The Nexlab VT Page
The Nexlab MA Page
The Nexlab CT Page Main Text Page